TimePDT,TemperatureF,Dew PointF,Humidity,Sea Level PressureIn,VisibilityMPH,Wind Direction,Wind SpeedMPH,Gust SpeedMPH,PrecipitationIn,Events,Conditions,WindDirDegrees,DateUTC
12:00 AM,62.6,59.0,88,29.92,10.0,Calm,Calm,-,N/A,,Overcast,0,2013-06-25 07:00:00
12:20 AM,62.6,59.0,88,29.90,10.0,South,3.5,-,N/A,,Overcast,170,2013-06-25 07:20:00
12:53 AM,62.1,57.9,86,29.90,10.0,East,3.5,-,N/A,,Mostly Cloudy,80,2013-06-25 07:53:00
1:32 AM,62.6,59.0,88,29.91,10.0,Calm,Calm,-,N/A,,Overcast,0,2013-06-25 08:32:00
1:53 AM,62.1,59.0,90,29.91,10.0,Calm,Calm,-,N/A,,Overcast,0,2013-06-25 08:53:00
2:53 AM,63.0,59.0,87,29.90,10.0,Calm,Calm,-,0.00,,Overcast,0,2013-06-25 09:53:00
3:53 AM,63.0,59.0,87,29.89,10.0,Calm,Calm,-,0.00,,Overcast,0,2013-06-25 10:53:00
4:53 AM,62.1,59.0,90,29.89,5.0,Calm,Calm,-,0.00,Rain,Light Rain,0,2013-06-25 11:53:00
5:15 AM,62.6,60.8,94,29.89,2.5,Calm,Calm,-,0.01,Rain,Light Rain,0,2013-06-25 12:15:00
5:43 AM,62.6,60.8,94,29.90,1.8,Calm,Calm,-,0.04,Rain,Rain,0,2013-06-25 12:43:00
5:53 AM,63.0,60.1,90,29.91,2.0,Calm,Calm,-,0.06,Rain,Light Rain,0,2013-06-25 12:53:00
6:06 AM,62.6,60.8,94,29.90,3.0,SE,4.6,-,0.00,,Overcast,140,2013-06-25 13:06:00
6:13 AM,62.6,60.8,94,29.90,3.0,SE,4.6,-,0.00,,Overcast,140,2013-06-25 13:13:00
6:53 AM,64.0,61.0,90,29.91,5.0,ESE,3.5,-,0.00,,Overcast,110,2013-06-25 13:53:00
7:53 AM,64.9,61.0,87,29.92,10.0,SSE,5.8,-,N/A,,Overcast,160,2013-06-25 14:53:00
8:10 AM,64.4,60.8,88,29.92,10.0,SE,4.6,-,N/A,,Overcast,140,2013-06-25 15:10:00
8:45 AM,64.4,62.6,94,29.93,1.8,SSE,5.8,-,0.01,Rain,Heavy Rain,160,2013-06-25 15:45:00
8:53 AM,66.0,62.1,87,29.93,1.8,SSE,5.8,-,0.04,Rain,Light Rain,150,2013-06-25 15:53:00
8:57 AM,66.2,62.6,88,29.93,3.0,SSE,5.8,-,0.00,Rain,Light Rain,150,2013-06-25 15:57:00
9:53 AM,68.0,62.1,81,29.94,10.0,SSE,5.8,-,0.01,,Overcast,150,2013-06-25 16:53:00
10:53 AM,70.0,61.0,73,29.95,10.0,SSE,10.4,16.1,N/A,,Overcast,150,2013-06-25 17:53:00
11:53 AM,69.1,62.1,78,29.96,5.0,SSE,4.6,-,0.00,Rain,Light Rain,150,2013-06-25 18:53:00
12:53 PM,70.0,62.1,76,29.98,10.0,South,3.5,-,0.00,,Overcast,190,2013-06-25 19:53:00
1:37 PM,69.8,64.4,83,29.98,9.0,West,6.9,-,0.00,,Overcast,260,2013-06-25 20:37:00
1:42 PM,69.8,64.4,83,29.98,10.0,West,9.2,-,0.00,,Overcast,260,2013-06-25 20:42:00
1:53 PM,70.0,64.9,84,29.99,10.0,WSW,6.9,-,0.00,,Overcast,240,2013-06-25 20:53:00
2:03 PM,69.8,64.4,83,29.98,10.0,WSW,4.6,-,N/A,,Overcast,240,2013-06-25 21:03:00
2:53 PM,73.0,63.0,71,29.98,10.0,SSW,8.1,-,N/A,,Overcast,210,2013-06-25 21:53:00
3:53 PM,75.0,63.0,66,29.96,10.0,SW,9.2,-,N/A,,Scattered Clouds,230,2013-06-25 22:53:00
4:51 PM,77.0,62.6,61,29.96,10.0,SW,9.2,-,N/A,,Mostly Cloudy,220,2013-06-25 23:51:00
4:53 PM,78.1,63.0,60,29.96,10.0,WSW,11.5,-,N/A,,Mostly Cloudy,250,2013-06-25 23:53:00
5:20 PM,75.2,62.6,65,29.95,10.0,WSW,9.2,-,N/A,,Scattered Clouds,250,2013-06-26 00:20:00
5:53 PM,75.9,62.1,62,29.94,10.0,West,16.1,21.9,N/A,,Clear,270,2013-06-26 00:53:00
6:53 PM,73.9,62.1,66,29.95,10.0,WSW,8.1,16.1,N/A,,Partly Cloudy,240,2013-06-26 01:53:00
7:53 PM,71.1,61.0,70,29.95,10.0,SSW,5.8,-,N/A,,Clear,200,2013-06-26 02:53:00
8:53 PM,69.1,61.0,75,29.94,10.0,SW,9.2,-,N/A,,Clear,220,2013-06-26 03:53:00
9:53 PM,68.0,60.1,76,29.96,10.0,SSW,5.8,-,N/A,,Clear,210,2013-06-26 04:53:00
10:53 PM,66.0,60.1,81,29.96,10.0,SW,8.1,-,N/A,,Clear,220,2013-06-26 05:53:00
11:53 PM,64.0,60.1,87,29.97,10.0,SSW,5.8,-,N/A,,Clear,210,2013-06-26 06:53:00